ORBCOMM FM20 [+]

Last updated on July 6, 2021, 3:36 p.m. UTC

1 25416U 98046D   21186.89527797 -.00000007  00000-0  48143-4 0  9999
2 25416  44.9949 141.7104 0002094 300.1999  59.8639 14.33108274197182
UTC
Height (km)
Latitude
Longitude
Inclination
Orbital Period
UTC large
Height (km)
Speed (km/s)
/
Latitude / Longitude
Inclination (degrees)
Orbital Period (minutes)
Azimuth
Elevation
Range (km)
Doppler Factor
iOS Compass Heading
iOS Angle